Time,TemperatureF,DewpointF,PressureIn,WindDirection,WindDirectionDegrees,WindSpeedMPH,WindSpeedGustMPH,Humidity,HourlyPrecipIn,Conditions,Clouds,dailyrainin,SoftwareType,DateUTC
2013-03-15 00:01:00,37.0,14.0,30.35,North,358,7.0,10.0,38,0.00,,,0.00,,2013-03-15 06:01:00,
2013-03-15 00:11:00,37.0,14.0,30.35,North,358,7.0,10.0,38,0.00,,,0.00,,2013-03-15 06:11:00,
2013-03-15 00:21:00,37.0,14.0,30.35,North,353,6.0,9.0,38,0.00,,,0.00,,2013-03-15 06:21:00,
2013-03-15 00:32:00,37.0,13.0,30.35,North,350,6.0,8.0,37,0.00,,,0.00,,2013-03-15 06:32:00,
2013-03-15 00:41:00,37.0,13.0,30.35,North,350,6.0,8.0,37,0.00,,,0.00,,2013-03-15 06:41:00,
2013-03-15 00:52:00,37.0,13.0,30.34,North,350,6.0,6.0,37,0.00,,,0.00,,2013-03-15 06:52:00,
2013-03-15 01:02:00,37.0,13.0,30.34,North,355,5.0,7.0,37,0.00,,,0.00,,2013-03-15 07:02:00,
2013-03-15 01:11:00,37.0,13.0,30.34,North,355,5.0,7.0,37,0.00,,,0.00,,2013-03-15 07:11:00,
2013-03-15 01:21:00,37.0,13.0,30.34,North,355,7.0,9.0,37,0.00,,,0.00,,2013-03-15 07:21:00,
2013-03-15 01:32:00,37.0,13.0,30.34,North,359,6.0,9.0,36,0.00,,,0.00,,2013-03-15 07:32:00,
2013-03-15 01:42:00,37.0,13.0,30.34,North,359,6.0,9.0,36,0.00,,,0.00,,2013-03-15 07:42:00,
2013-03-15 01:52:00,37.0,13.0,30.33,North,351,7.0,13.0,37,0.00,,,0.00,,2013-03-15 07:52:00,
2013-03-15 02:02:00,37.0,13.0,30.33,North,354,6.0,8.0,36,0.00,,,0.00,,2013-03-15 08:02:00,
2013-03-15 02:11:00,37.0,13.0,30.33,North,354,6.0,8.0,36,0.00,,,0.00,,2013-03-15 08:11:00,
2013-03-15 02:22:00,37.0,14.0,30.33,NNW,344,5.0,7.0,38,0.00,,,0.00,,2013-03-15 08:22:00,
2013-03-15 02:32:00,37.0,13.0,30.33,North,353,7.0,10.0,36,0.00,,,0.00,,2013-03-15 08:32:00,
2013-03-15 02:41:00,37.0,13.0,30.33,North,353,7.0,10.0,36,0.00,,,0.00,,2013-03-15 08:41:00,
2013-03-15 02:52:00,37.0,12.0,30.33,North,357,5.0,8.0,35,0.00,,,0.00,,2013-03-15 08:52:00,
2013-03-15 03:02:00,37.0,13.0,30.32,North,355,6.0,9.0,36,0.00,,,0.00,,2013-03-15 09:02:00,
2013-03-15 03:11:00,37.0,13.0,30.32,North,355,6.0,9.0,36,0.00,,,0.00,,2013-03-15 09:11:00,
2013-03-15 03:21:00,37.0,12.0,30.32,North,0,7.0,10.0,35,0.00,,,0.00,,2013-03-15 09:21:00,
2013-03-15 03:33:00,36.0,13.0,30.32,North,1,6.0,9.0,38,0.00,,,0.00,,2013-03-15 09:33:00,
2013-03-15 03:42:00,36.0,13.0,30.32,North,1,6.0,9.0,38,0.00,,,0.00,,2013-03-15 09:42:00,
2013-03-15 03:52:00,36.0,13.0,30.31,North,358,5.0,8.0,38,0.00,,,0.00,,2013-03-15 09:52:00,
2013-03-15 04:02:00,36.0,12.0,30.31,North,0,6.0,6.0,37,0.00,,,0.00,,2013-03-15 10:02:00,
2013-03-15 04:12:00,36.0,12.0,30.31,North,0,6.0,6.0,37,0.00,,,0.00,,2013-03-15 10:12:00,
2013-03-15 04:22:00,36.0,12.0,30.31,North,359,3.0,6.0,37,0.00,,,0.00,,2013-03-15 10:22:00,
2013-03-15 04:32:00,35.0,13.0,30.30,North,349,5.0,7.0,39,0.00,,,0.00,,2013-03-15 10:32:00,
2013-03-15 04:41:00,35.0,13.0,30.30,North,349,5.0,7.0,39,0.00,,,0.00,,2013-03-15 10:41:00,
2013-03-15 04:51:00,35.0,13.0,30.30,North,3,3.0,9.0,40,0.00,,,0.00,,2013-03-15 10:51:00,
2013-03-15 05:02:00,35.0,12.0,30.30,NNW,348,5.0,8.0,38,0.00,,,0.00,,2013-03-15 11:02:00,
2013-03-15 05:11:00,35.0,12.0,30.30,NNW,348,5.0,8.0,38,0.00,,,0.00,,2013-03-15 11:11:00,
2013-03-15 05:22:00,36.0,13.0,30.29,North,359,3.0,6.0,38,0.00,,,0.00,,2013-03-15 11:22:00,
2013-03-15 05:32:00,36.0,13.0,30.30,NNW,345,6.0,8.0,38,0.00,,,0.00,,2013-03-15 11:32:00,
2013-03-15 05:41:00,36.0,13.0,30.30,NNW,345,6.0,8.0,38,0.00,,,0.00,,2013-03-15 11:41:00,
2013-03-15 05:51:00,36.0,13.0,30.30,North,349,6.0,8.0,38,0.00,,,0.00,,2013-03-15 11:51:00,
2013-03-15 06:01:00,34.0,13.0,30.30,NNW,332,7.0,12.0,41,0.00,,,0.00,,2013-03-15 12:01:00,
2013-03-15 06:11:00,35.0,13.0,30.29,NNW,348,6.0,9.0,40,0.00,,,0.00,,2013-03-15 12:11:00,
2013-03-15 06:21:00,35.0,13.0,30.29,NNW,348,6.0,9.0,40,0.00,,,0.00,,2013-03-15 12:21:00,
2013-03-15 06:32:00,35.0,14.0,30.29,NNW,338,6.0,9.0,41,0.00,,,0.00,,2013-03-15 12:32:00,
2013-03-15 06:42:00,35.0,14.0,30.29,NNW,338,6.0,9.0,41,0.00,,,0.00,,2013-03-15 12:42:00,
2013-03-15 06:51:00,34.0,14.0,30.29,NNW,335,5.0,5.0,44,0.00,,,0.00,,2013-03-15 12:51:00,
2013-03-15 07:02:00,33.0,13.0,30.29,NNW,335,6.0,6.0,43,0.00,,,0.00,,2013-03-15 13:02:00,
2013-03-15 07:11:00,33.0,13.0,30.29,NNW,335,6.0,6.0,43,0.00,,,0.00,,2013-03-15 13:11:00,
2013-03-15 07:22:00,33.0,13.0,30.29,NNW,343,6.0,9.0,43,0.00,,,0.00,,2013-03-15 13:22:00,
2013-03-15 07:32:00,34.0,13.0,30.29,NNW,344,6.0,8.0,41,0.00,,,0.00,,2013-03-15 13:32:00,
2013-03-15 07:41:00,34.0,13.0,30.29,NNW,344,6.0,8.0,41,0.00,,,0.00,,2013-03-15 13:41:00,
2013-03-15 07:52:00,34.0,12.0,30.29,North,352,5.0,8.0,40,0.00,,,0.00,,2013-03-15 13:52:00,
2013-03-15 08:02:00,34.0,12.0,30.29,North,355,7.0,9.0,40,0.00,,,0.00,,2013-03-15 14:02:00,
2013-03-15 08:11:00,34.0,12.0,30.29,North,355,7.0,9.0,40,0.00,,,0.00,,2013-03-15 14:11:00,
2013-03-15 08:22:00,35.0,13.0,30.29,NNW,348,5.0,8.0,40,0.00,,,0.00,,2013-03-15 14:22:00,
2013-03-15 08:32:00,37.0,11.0,30.29,North,356,6.0,7.0,34,0.00,,,0.00,,2013-03-15 14:32:00,
2013-03-15 08:41:00,37.0,11.0,30.29,North,356,6.0,7.0,34,0.00,,,0.00,,2013-03-15 14:41:00,
2013-03-15 08:51:00,39.0,12.0,30.29,North,5,3.0,5.0,33,0.00,,,0.00,,2013-03-15 14:51:00,
2013-03-15 09:02:00,41.0,13.0,30.28,North,359,3.0,5.0,32,0.00,,,0.00,,2013-03-15 15:02:00,
2013-03-15 09:21:00,42.0,14.0,30.28,NNE,16,3.0,5.0,31,0.00,,,0.00,,2013-03-15 15:21:00,
2013-03-15 09:32:00,44.0,13.0,30.28,NNE,28,3.0,5.0,28,0.00,,,0.00,,2013-03-15 15:32:00,
2013-03-15 09:42:00,45.0,13.0,30.28,North,357,1.0,3.0,27,0.00,,,0.00,,2013-03-15 15:42:00,
2013-03-15 09:52:00,45.0,13.0,30.28,North,357,1.0,3.0,27,0.00,,,0.00,,2013-03-15 15:52:00,
2013-03-15 10:02:00,48.0,16.0,30.28,NNE,22,0.0,0.0,27,0.00,,,0.00,,2013-03-15 16:02:00,
2013-03-15 10:12:00,50.0,17.0,30.28,ENE,76,1.0,3.0,27,0.00,,,0.00,,2013-03-15 16:12:00,
2013-03-15 10:22:00,50.0,17.0,30.28,ENE,76,1.0,3.0,27,0.00,,,0.00,,2013-03-15 16:22:00,
2013-03-15 10:32:00,54.0,21.0,30.28,ESE,102,1.0,2.0,27,0.00,,,0.00,,2013-03-15 16:32:00,
2013-03-15 10:41:00,54.0,21.0,30.28,ESE,102,1.0,2.0,27,0.00,,,0.00,,2013-03-15 16:41:00,
2013-03-15 10:52:00,55.0,20.0,30.28,SE,145,2.0,3.0,25,0.00,,,0.00,,2013-03-15 16:52:00,
2013-03-15 11:01:00,55.0,14.0,30.28,West,278,7.0,12.0,19,0.00,,,0.00,,2013-03-15 17:01:00,
2013-03-15 11:11:00,55.0,14.0,30.28,West,278,7.0,12.0,19,0.00,,,0.00,,2013-03-15 17:11:00,
2013-03-15 11:22:00,56.0,13.0,30.28,West,279,13.0,16.0,18,0.00,,,0.00,,2013-03-15 17:22:00,
2013-03-15 11:32:00,58.0,13.0,30.28,WNW,294,9.0,12.0,17,0.00,,,0.00,,2013-03-15 17:32:00,
2013-03-15 11:52:00,59.0,16.0,30.27,NW,311,1.0,5.0,18,0.00,,,0.00,,2013-03-15 17:52:00,
2013-03-15 12:02:00,58.0,13.0,30.27,NW,319,6.0,12.0,17,0.00,,,0.00,,2013-03-15 18:02:00,
2013-03-15 12:11:00,58.0,13.0,30.27,NW,319,6.0,12.0,17,0.00,,,0.00,,2013-03-15 18:11:00,
2013-03-15 12:21:00,58.0,13.0,30.27,NNE,20,0.0,6.0,17,0.00,,,0.00,,2013-03-15 18:21:00,
2013-03-15 12:32:00,61.0,13.0,30.27,West,276,10.0,18.0,15,0.00,,,0.00,,2013-03-15 18:32:00,
2013-03-15 12:41:00,61.0,13.0,30.27,West,276,10.0,18.0,15,0.00,,,0.00,,2013-03-15 18:41:00,
2013-03-15 12:52:00,61.0,13.0,30.26,ESE,102,2.0,7.0,15,0.00,,,0.00,,2013-03-15 18:52:00,
2013-03-15 13:02:00,66.0,17.0,30.26,SW,236,9.0,15.0,15,0.00,,,0.00,,2013-03-15 19:02:00,
2013-03-15 13:22:00,61.0,13.0,30.25,West,278,15.0,23.0,15,0.00,,,0.00,,2013-03-15 19:22:00,
2013-03-15 13:32:00,64.0,18.0,30.25,ESE,118,3.0,3.0,17,0.00,,,0.00,,2013-03-15 19:32:00,
2013-03-15 13:52:00,64.0,17.0,30.24,SW,231,1.0,6.0,16,0.00,,,0.00,,2013-03-15 19:52:00,
2013-03-15 14:02:00,65.0,16.0,30.24,WSW,255,10.0,18.0,15,0.00,,,0.00,,2013-03-15 20:02:00,
2013-03-15 14:22:00,62.0,17.0,30.24,SSW,202,8.0,15.0,17,0.00,,,0.00,,2013-03-15 20:22:00,
2013-03-15 14:31:00,63.0,16.0,30.23,West,265,10.0,23.0,16,0.00,,,0.00,,2013-03-15 20:31:00,
2013-03-15 14:41:00,63.0,16.0,30.23,West,265,10.0,23.0,16,0.00,,,0.00,,2013-03-15 20:41:00,
2013-03-15 14:51:00,61.0,14.0,30.23,West,272,10.0,17.0,16,0.00,,,0.00,,2013-03-15 20:51:00,
2013-03-15 15:02:00,60.0,15.0,30.22,West,272,10.0,18.0,17,0.00,,,0.00,,2013-03-15 21:02:00,
2013-03-15 15:11:00,60.0,15.0,30.22,West,272,10.0,18.0,17,0.00,,,0.00,,2013-03-15 21:11:00,
2013-03-15 15:21:00,59.0,14.0,30.22,West,261,6.0,6.0,17,0.00,,,0.00,,2013-03-15 21:21:00,
2013-03-15 15:32:00,58.0,16.0,30.22,NW,315,5.0,10.0,19,0.00,,,0.00,,2013-03-15 21:32:00,
2013-03-15 15:42:00,58.0,16.0,30.22,NW,315,5.0,10.0,19,0.00,,,0.00,,2013-03-15 21:42:00,
2013-03-15 15:52:00,59.0,16.0,30.21,NW,307,3.0,8.0,18,0.00,,,0.00,,2013-03-15 21:52:00,
2013-03-15 16:03:00,59.0,17.0,30.21,West,274,5.0,5.0,19,0.00,,,0.00,,2013-03-15 22:03:00,
2013-03-15 16:12:00,59.0,17.0,30.21,West,274,5.0,5.0,19,0.00,,,0.00,,2013-03-15 22:12:00,
2013-03-15 16:22:00,58.0,16.0,30.21,West,263,9.0,12.0,19,0.00,,,0.00,,2013-03-15 22:22:00,
2013-03-15 16:32:00,58.0,15.0,30.21,West,269,7.0,9.0,18,0.00,,,0.00,,2013-03-15 22:32:00,
2013-03-15 16:41:00,58.0,15.0,30.21,West,269,7.0,9.0,18,0.00,,,0.00,,2013-03-15 22:41:00,
2013-03-15 16:52:00,58.0,16.0,30.20,West,276,5.0,12.0,19,0.00,,,0.00,,2013-03-15 22:52:00,
2013-03-15 17:02:00,63.0,16.0,30.20,SSE,153,3.0,5.0,16,0.00,,,0.00,,2013-03-15 23:02:00,
2013-03-15 17:21:00,63.0,13.0,30.20,West,277,13.0,20.0,14,0.00,,,0.00,,2013-03-15 23:21:00,
2013-03-15 17:32:00,61.0,13.0,30.19,West,272,6.0,10.0,15,0.00,,,0.00,,2013-03-15 23:32:00,
2013-03-15 17:41:00,61.0,13.0,30.19,West,272,6.0,10.0,15,0.00,,,0.00,,2013-03-15 23:41:00,
2013-03-15 17:52:00,60.0,12.0,30.19,West,278,2.0,2.0,15,0.00,,,0.00,,2013-03-15 23:52:00,
2013-03-15 18:02:00,58.0,13.0,30.18,West,277,7.0,9.0,17,0.00,,,0.00,,2013-03-16 00:02:00,
2013-03-15 18:11:00,58.0,13.0,30.18,West,277,7.0,9.0,17,0.00,,,0.00,,2013-03-16 00:11:00,
2013-03-15 18:22:00,56.0,14.0,30.18,WNW,283,0.0,0.0,19,0.00,,,0.00,,2013-03-16 00:22:00,
2013-03-15 18:32:00,54.0,15.0,30.18,NW,322,2.0,6.0,21,0.00,,,0.00,,2013-03-16 00:32:00,
2013-03-15 18:42:00,54.0,15.0,30.18,NW,322,2.0,6.0,21,0.00,,,0.00,,2013-03-16 00:42:00,
2013-03-15 18:52:00,53.0,14.0,30.18,NNW,327,2.0,3.0,21,0.00,,,0.00,,2013-03-16 00:52:00,
2013-03-15 19:02:00,51.0,15.0,30.18,NNW,330,0.0,0.0,23,0.00,,,0.00,,2013-03-16 01:02:00,
2013-03-15 19:11:00,51.0,15.0,30.18,NNW,330,0.0,0.0,23,0.00,,,0.00,,2013-03-16 01:11:00,
2013-03-15 19:21:00,50.0,15.0,30.18,North,349,1.0,3.0,24,0.00,,,0.00,,2013-03-16 01:21:00,
2013-03-15 19:32:00,48.0,15.0,30.18,NW,316,3.0,3.0,26,0.00,,,0.00,,2013-03-16 01:32:00,
2013-03-15 19:41:00,48.0,15.0,30.18,NW,316,3.0,3.0,26,0.00,,,0.00,,2013-03-16 01:41:00,
2013-03-15 19:52:00,48.0,16.0,30.18,NNW,340,0.0,0.0,27,0.00,,,0.00,,2013-03-16 01:52:00,
2013-03-15 20:02:00,47.0,15.0,30.18,NNW,342,0.0,3.0,27,0.00,,,0.00,,2013-03-16 02:02:00,
2013-03-15 20:11:00,47.0,15.0,30.18,NNW,342,0.0,3.0,27,0.00,,,0.00,,2013-03-16 02:11:00,
2013-03-15 20:22:00,46.0,14.0,30.18,NNW,343,3.0,5.0,27,0.00,,,0.00,,2013-03-16 02:22:00,
2013-03-15 20:32:00,44.0,15.0,30.18,NW,314,5.0,7.0,30,0.00,,,0.00,,2013-03-16 02:32:00,
2013-03-15 20:42:00,44.0,15.0,30.18,NW,314,5.0,7.0,30,0.00,,,0.00,,2013-03-16 02:42:00,
2013-03-15 20:52:00,45.0,14.0,30.19,NNW,341,0.0,0.0,28,0.00,,,0.00,,2013-03-16 02:52:00,
2013-03-15 21:02:00,43.0,16.0,30.18,NW,323,2.0,3.0,33,0.00,,,0.00,,2013-03-16 03:02:00,
2013-03-15 21:11:00,43.0,16.0,30.18,NW,323,2.0,3.0,33,0.00,,,0.00,,2013-03-16 03:11:00,
2013-03-15 21:21:00,42.0,16.0,30.18,NW,323,0.0,0.0,34,0.00,,,0.00,,2013-03-16 03:21:00,
2013-03-15 21:32:00,41.0,16.0,30.18,North,7,3.0,7.0,36,0.00,,,0.00,,2013-03-16 03:32:00,
2013-03-15 21:42:00,41.0,16.0,30.18,North,7,3.0,7.0,36,0.00,,,0.00,,2013-03-16 03:42:00,
2013-03-15 21:52:00,41.0,15.0,30.18,North,0,5.0,6.0,35,0.00,,,0.00,,2013-03-16 03:52:00,
2013-03-15 22:02:00,40.0,17.0,30.17,North,355,5.0,8.0,39,0.00,,,0.00,,2013-03-16 04:02:00,
2013-03-15 22:12:00,40.0,17.0,30.17,North,355,5.0,8.0,39,0.00,,,0.00,,2013-03-16 04:12:00,
2013-03-15 22:22:00,40.0,18.0,30.17,North,1,6.0,8.0,40,0.00,,,0.00,,2013-03-16 04:22:00,
2013-03-15 22:32:00,39.0,18.0,30.17,North,1,5.0,8.0,42,0.00,,,0.00,,2013-03-16 04:32:00,
2013-03-15 22:42:00,39.0,18.0,30.17,North,1,5.0,8.0,42,0.00,,,0.00,,2013-03-16 04:42:00,
2013-03-15 22:52:00,39.0,18.0,30.17,North,0,7.0,7.0,43,0.00,,,0.00,,2013-03-16 04:52:00,
2013-03-15 23:02:00,38.0,18.0,30.17,NNW,346,7.0,10.0,44,0.00,,,0.00,,2013-03-16 05:02:00,
2013-03-15 23:12:00,38.0,18.0,30.17,NNW,346,7.0,10.0,44,0.00,,,0.00,,2013-03-16 05:12:00,
2013-03-15 23:21:00,38.0,17.0,30.16,North,6,6.0,8.0,42,0.00,,,0.00,,2013-03-16 05:21:00,
2013-03-15 23:32:00,37.0,17.0,30.16,North,353,7.0,9.0,43,0.00,,,0.00,,2013-03-16 05:32:00,
2013-03-15 23:42:00,37.0,17.0,30.16,North,353,7.0,9.0,43,0.00,,,0.00,,2013-03-16 05:42:00,
2013-03-15 23:52:00,37.0,18.0,30.16,NNW,343,6.0,8.0,45,0.00,,,0.00,,2013-03-16 05:52:00,